FW0984 Weather Reports


Display with metric or nautical units.
time (UTC)temp
F
wind
direction
speed
MPH
gust
MPH
rain 1hr
in
rain 24hr
in
rain mn
in
humidity
%
barometer
mb
20260904030016 76 159 0.0 0.0 0.00 0.00 0.00 91 1015.4
20260904024515 76 159 0.0 0.0 0.00 0.00 0.00 90 1015.5
20260904023015 76 159 0.0 0.0 0.00 0.00 0.00 89 1015.5
20260904021520 77 159 0.0 0.0 0.00 0.00 0.00 88 1015.5
20260904020014 77 159 0.0 0.0 0.00 0.00 0.00 88 1015.5
20260904014520 77 159 0.0 0.0 0.00 0.00 0.00 88 1015.5
20260904013013 78 159 0.0 0.0 0.00 0.00 0.00 88 1015.5
20260904011525 78 159 0.0 0.0 0.00 0.00 0.00 87 1015.5
20260904010112 79 159 0.0 0.0 0.00 0.00 0.00 84 1015.5
20260904004511 80 159 0.0 0.0 0.00 0.00 0.00 81 1015.2
20260904003111 80 159 0.0 0.0 0.00 0.00 0.00 82 1015.0
20260904001511 82 180 0.0 0.0 0.00 0.00 0.00 77 1015.0
20260904000009 84 180 0.0 0.0 0.00 0.00 0.00 71 1014.9
20260903234509 86 180 0.0 0.0 0.00 0.00 0.00 67 1014.8
20260903233008 86 180 0.0 0.0 0.00 0.00 0.00 68 1014.7
20260903231508 86 180 0.0 0.0 0.00 0.00 0.00 67 1014.6
20260903230010 86 180 0.0 0.0 0.00 0.00 0.00 67 1014.7
20260903224520 87 180 0.0 0.0 0.00 0.00 0.00 66 1014.7
20260903223007 88 278 0.0 0.0 0.00 0.00 0.00 62 1014.6
20260903221508 88 260 0.0 0.0 0.00 0.00 0.00 61 1014.3
20260903220009 88 310 0.0 0.0 0.00 0.00 0.00 63 1014.1
20260903214505 88 297 0.0 0.0 0.00 0.00 0.00 63 1013.8
20260903213004 87 291 0.0 0.0 0.00 0.00 0.00 64 1013.8
20260903211511 89 313 0.0 0.0 0.00 0.00 0.00 60 1013.9
20260903210004 91 279 0.0 0.0 0.00 0.00 0.00 59 1014.0
20260903204504 91 302 0.0 0.0 0.00 0.00 0.00 57 1014.1
20260903203100 91 282 0.0 0.0 0.00 0.00 0.00 55 1014.3
20260903201558 92 302 0.0 0.0 0.00 0.00 0.00 56 1014.5
20260903200056 92 290 0.0 0.0 0.00 0.00 0.00 53 1014.8
20260903194555 92 292 0.0 0.0 0.00 0.00 0.00 57 1015.1
20260903193054 91 323 0.0 0.0 0.00 0.00 0.00 56 1015.1
20260903191551 92 275 0.0 0.0 0.00 0.00 0.00 54 1015.3
20260903190051 93 277 0.0 0.0 0.00 0.00 0.00 55 1015.5
20260903184557 93 295 0.0 0.0 0.00 0.00 0.00 57 1015.6
20260903183049 93 307 0.0 0.0 0.00 0.00 0.00 58 1015.7
20260903181547 93 280 0.0 0.0 0.00 0.00 0.00 55 1015.7
20260903180048 93 278 0.0 0.0 0.00 0.00 0.00 54 1015.8
20260903174558 93 249 0.0 0.0 0.00 0.00 0.00 56 1016.0
20260903173042 92 280 0.0 0.0 0.00 0.00 0.00 53 1016.1
20260903171539 92 283 0.0 0.0 0.00 0.00 0.00 58 1016.2
20260903170103 92 294 0.0 0.0 0.00 0.00 0.00 59 1016.3
20260903164542 92 256 0.0 0.0 0.00 0.00 0.00 59 1016.4
20260903163034 91 298 0.0 0.0 0.00 0.00 0.00 61 1016.7
20260903161531 91 269 0.0 0.0 0.00 0.00 0.00 63 1016.7
20260903160031 91 329 0.0 0.0 0.00 0.00 0.00 64 1016.8
20260903154524 90 279 0.0 0.0 0.00 0.00 0.00 69 1016.8
20260903153021 90 183 0.0 0.0 0.00 0.00 0.00 68 1016.9
20260903151517 89 258 0.0 0.0 0.00 0.00 0.00 73 1016.9
20260903150022 89 64 0.0 0.0 0.00 0.00 0.00 70 1016.8
20260903144506 87 62 0.0 0.0 0.00 0.00 0.00 75 1016.9
20260903143003 86 240 0.0 0.0 0.00 0.00 0.00 83 1016.9
20260903141549 79 154 0.0 0.0 0.00 0.00 0.00 88 1016.9
20260903140044 78 154 0.0 0.0 0.00 0.00 0.00 90 1017.0
20260903134539 76 154 0.0 0.0 0.00 0.00 0.00 93 1017.1
20260903133046 75 154 0.0 0.0 0.00 0.00 0.00 94 1017.2
20260903131532 74 154 0.0 0.0 0.00 0.00 0.00 94 1017.4
20260903130133 74 154 0.0 0.0 0.00 0.00 0.00 94 1017.4
20260903124530 74 154 0.0 0.0 0.00 0.00 0.00 95 1017.5
20260903123030 74 154 0.0 0.0 0.00 0.00 0.00 95 1017.6
20260903121528 73 154 0.0 0.0 0.00 0.00 0.00 96 1017.7
20260903120028 72 154 0.0 0.0 0.00 0.00 0.00 96 1017.6
20260903114523 71 154 0.0 0.0 0.00 0.00 0.00 96 1017.6
20260903113019 71 154 0.0 0.0 0.00 0.00 0.00 96 1017.5
20260903111522 71 154 0.0 0.0 0.00 0.00 0.00 96 1017.3
20260903110014 71 154 0.0 0.0 0.00 0.00 0.00 96 1017.1
20260903104514 71 154 0.0 0.0 0.00 0.00 0.00 96 1017.0
20260903103110 71 154 0.0 0.0 0.00 0.00 0.00 96 1016.8
20260903101507 71 154 0.0 0.0 0.00 0.00 0.00 96 1016.8
20260903100007 72 151 0.0 0.0 0.00 0.00 0.00 95 1016.8
20260903094505 72 151 0.0 0.0 0.00 0.00 0.00 95 1016.7
20260903093004 72 151 0.0 0.0 0.00 0.00 0.00 95 1016.7
20260903091503 72 151 0.0 0.0 0.00 0.00 0.00 95 1016.8
20260903090002 72 151 0.0 0.0 0.00 0.00 0.00 95 1016.8
20260903084501 72 151 0.0 0.0 0.00 0.00 0.00 95 1016.7
20260903083100 73 151 0.0 0.0 0.00 0.00 0.00 94 1016.6
20260903081602 73 151 0.0 0.0 0.00 0.00 0.00 94 1016.6
20260903080057 73 151 0.0 0.0 0.00 0.00 0.00 94 1016.6
20260903074603 73 151 0.0 0.0 0.00 0.00 0.00 94 1016.6
20260903073101 73 151 0.0 0.0 0.00 0.00 0.00 94 1016.5
20260903071603 73 151 0.0 0.0 0.00 0.00 0.00 94 1016.4
20260903070055 73 151 0.0 0.0 0.00 0.00 0.00 93 1016.4
20260903064556 73 151 0.0 0.0 0.00 0.00 0.00 94 1016.5
20260903063056 73 151 0.0 0.0 0.00 0.00 0.00 94 1016.5
20260903061601 73 151 0.0 0.0 0.00 0.00 0.00 94 1016.5